RH
51 50 49 52 58 63 68 72 76 75 65 51 48 46 49 24 13 10 11 9 8 8 22 17 8 6 14 40 41 28 15 12 66 86 42 50 96 100
49 50 51 53 59 64 69 71 71 72 74 65 58 54 52 52 20 11 11 14 8 11 59 74 74 54 43 44 69 90 77 88 88 48 44 46 38 84
48 54 59 57 58 59 61 64 66 67 70 71 64 61 60 52 39 39 20 10 13 28 71 80 88 92 91 91 92 92 94 94 91 75 40 45 80 44
62 65 65 64 63 64 65 65 65 66 68 71 71 68 66 68 71 58 51 52 56 22 51 85 88 85 84 86 90 88 91 93 93 94 99 96 98 94
65 71 71 72 71 69 68 68 68 69 71 74 77 76 76 76 76 76 68 67 57 70 66 61 63 73 84 85 87 91 92 88 92 92 97 100 96 76
69 71 71 74 76 76 77 76 76 77 78 79 80 82 76 79 76 69 75 71 73 63 57 64 69 63 78 79 81 85 90 90 85 77 86 91 88 49
87 86 85 86 88 92 95 90 84 80 78 80 95 98 89 78 86 89 79 75 77 63 72 66 51 69 67 73 78 76 79 84 88 90 92 93 93 92
95 93 91 91 90 90 90 94 97 97 97 98 86 96 99 96 88 87 84 81 85 74 74 76 74 55 71 84 79 79 80 83 83 89 90 91 92 92
96 93 92 89 89 95 91 90 93 96 94 96 97 90 91 77 89 89 85 83 81 79 86 89 76 88 59 65 88 89 90 89 93 91 90 90 91 91
94 91 90 89 88 87 90 88 79 82 86 82 79 80 80 80 83 84 85 90 84 87 80 100 80 91 81 73 81 81 76 78 79 81 87 90 91 92
92 90 90 89 85 88 94 98 95 79 74 83 88 90 89 88 91 95 98 99 94 88 74 92 88 89 83 76 67 64 70 73 75 78 82 84 86 87
96 88 89 90 90 90 92 91 89 75 81 91 89 81 85 70 75 80 88 93 96 99 83 89 87 79 84 65 48 52 65 78 81 82 84 86 90 92
90 89 81 90 89 88 89 97 97 93 87 89 95 79 83 86 89 90 83 89 96 96 79 75 80 83 88 89 60 49 79 77 83 77 82 85 85 86
95 83 78 94 91 88 90 94 89 91 96 96 94 96 98 95 88 88 93 88 82 80 64 56 88 94 95 98 98 56 72 79 90 86 77 81 89 91
98 96 99 94 94 92 98 100 97 96 95 97 90 91 89 92 87 80 76 63 57 52 48 52 96 83 89 100 98 88 88 88 96 93 82 80 81 78
93 93 94 92 92 93 92 94 96 85 92 97 97 92 83 76 79 83 90 87 93 85 67 76 96 98 95 94 99 98 100 100 100 95 94 90 81 78
91 87 80 77 61 72 86 83 93 97 82 75 74 78 79 82 89 91 89 90 100 100 96 91 91 94 94 100 100 100 100 100 92 100 100 98 86 81
98 95 92 99 98 100 98 92 83 77 70 71 71 77 87 100 93 90 96 96 100 99 100 98 96 98 99 98 99 95 93 100 100 95 100 100 98 78
99 99 98 98 96 95 87 69 60 51 47 55 74 90 94 97 100 100 100 100 100 100 100 100 100 100 99 96 80 85 88 89 95 98 99 100 100 77
98 98 98 96 89 73 64 56 48 42 40 42 74 96 98 100 100 97 95 100 100 100 100 100 100 100 100 96 94 90 90 91 94 94 96 96 92 81
99 99 100 91 72 64 56 50 44 44 46 55 82 93 92 100 95 91 98 100 100 100 100 100 95 100 100 99 99 96 94 88 91 99 98 99 99 97
100 100 93 72 66 57 52 47 48 47 45 64 88 88 85 83 89 89 99 100 100 100 100 100 95 100 100 100 99 100 99 95 91 93 95 100 100 96
95 89 75 67 62 61 54 49 49 47 45 60 76 76 74 76 73 87 99 100 100 100 100 100 100 100 100 100 100 100 100 100 100 100 99 98 92 90
Wind_Speed
21 20 21 21 20 19 19 20 20 24 24 20 21 18 21 29 28 29 29 29 30 32 31 32 33 33 31 30 29 28 27 26 24 25 35 37 39 36
23 24 23 24 20 20 20 20 21 25 29 22 24 24 26 25 28 29 30 30 31 30 27 26 28 31 32 31 29 27 27 25 27 30 29 33 41 45
24 23 23 23 24 24 23 22 24 25 30 28 24 23 25 28 29 29 30 30 30 29 26 26 27 27 28 29 29 28 28 29 29 29 29 31 28 43
22 22 23 21 22 23 23 24 24 25 27 30 27 25 25 23 27 29 28 28 28 33 29 26 26 27 29 29 31 32 31 31 30 28 27 25 23 24
23 22 21 21 22 23 23 24 25 25 26 28 29 26 26 26 27 25 28 27 30 24 26 29 31 31 29 30 31 31 30 30 26 28 27 28 31 32
23 22 22 22 23 23 24 25 25 26 27 28 29 29 30 25 26 31 30 28 26 30 34 33 31 34 31 30 30 28 27 28 30 30 30 31 32 35
22 23 23 24 24 26 28 29 30 31 32 33 31 28 30 31 28 25 30 31 32 35 32 33 35 35 36 33 30 30 29 29 30 32 33 34 34 35
28 28 27 27 28 29 30 31 32 35 37 33 37 34 33 32 33 32 33 34 35 30 31 35 36 41 39 34 33 32 33 32 34 34 34 35 36 35
29 29 29 29 27 29 29 29 31 31 32 34 36 39 38 40 34 33 33 34 37 36 36 42 42 40 42 42 33 32 33 34 34 35 36 36 36 37
31 30 31 32 31 30 31 33 35 34 32 34 35 36 36 37 35 36 38 42 45 43 41 41 42 41 43 42 40 36 38 38 39 40 39 38 39 40
29 30 31 33 32 30 32 34 37 38 37 33 34 36 36 37 37 39 41 37 39 40 41 41 43 38 36 38 42 41 39 38 39 39 40 40 41 41
32 33 31 33 33 32 34 36 39 39 38 36 35 35 34 38 36 37 39 40 42 41 36 32 34 35 39 45 49 48 44 39 38 38 38 37 36 37
36 35 34 29 30 30 31 34 37 36 36 37 37 39 40 40 40 39 37 35 34 34 37 37 37 37 37 42 50 52 42 43 40 42 41 39 40 40
38 38 37 31 31 32 32 33 33 34 35 37 40 38 32 33 32 29 28 31 34 38 44 45 41 40 41 43 45 52 46 44 40 41 43 42 39 39
36 37 34 33 33 34 34 34 33 34 32 31 34 33 29 27 30 34 39 43 43 45 45 45 39 43 43 42 46 49 46 46 41 41 42 42 43 44
29 31 31 31 31 32 31 30 29 30 28 26 26 30 34 36 35 35 35 37 38 43 44 43 39 39 44 45 45 50 44 49 43 42 42 43 44 44
23 26 29 29 30 32 28 31 24 20 24 29 33 35 36 37 36 34 36 38 38 41 44 43 41 41 44 46 47 48 49 50 51 47 42 46 48 48
32 35 35 34 32 31 21 19 23 27 31 34 36 36 34 33 36 38 37 38 40 43 43 43 42 42 44 48 43 48 52 52 49 50 47 46 51 50
33 30 23 22 20 20 24 27 32 36 36 33 32 34 35 36 34 38 39 39 41 42 43 42 41 40 43 47 53 42 47 50 46 47 46 46 51 55
28 22 19 20 20 24 28 33 37 37 36 35 33 33 36 37 38 41 42 41 43 45 45 44 43 43 46 52 56 53 46 48 47 48 48 47 53 57
18 15 18 23 25 30 33 35 35 35 35 35 34 35 37 40 43 44 45 43 45 47 48 49 50 46 49 52 54 54 54 53 54 57 56 53 55 51
24 22 26 26 28 30 30 32 33 35 35 35 36 38 41 44 46 47 47 47 50 50 51 54 55 53 49 50 57 57 56 56 55 53 54 57 54 52
20 22 24 27 28 28 31 33 34 36 36 37 39 42 45 49 52 52 53 53 52 53 54 55 55 52 54 55 57 59 57 56 55 54 57 54 57 62
Wind_Direction
282 281 280 280 277 273 271 271 273 284 283 281 282 282 277 291 298 303 308 313 315 320 320 319 316 313 309 307 304 300 294 289 292 286 273 269 260 240
281 280 278 277 272 268 267 266 265 270 277 277 276 279 283 287 294 296 302 306 311 313 313 311 312 311 308 305 304 303 300 296 290 283 283 279 275 258
281 280 277 274 273 271 266 265 265 265 271 279 278 278 279 285 292 293 297 301 306 308 308 307 307 307 307 305 303 300 297 295 295 290 281 278 289 272
280 279 276 275 272 270 268 267 266 266 269 277 279 278 277 281 282 291 298 302 302 306 306 305 305 301 302 299 297 297 296 293 290 290 290 277 282 279
279 276 275 272 270 270 268 269 267 268 269 274 279 279 281 288 289 289 289 290 298 299 299 301 301 298 299 298 297 296 294 292 291 280 277 282 280 277
275 273 272 270 268 268 268 267 267 270 272 272 275 278 280 283 281 285 288 291 290 286 293 297 297 298 298 296 293 293 291 290 289 287 286 284 283 279
276 275 274 273 272 272 272 271 269 269 272 275 273 278 281 282 279 281 284 290 286 290 292 296 300 297 298 298 293 290 289 288 287 285 286 285 284 281
273 274 272 271 269 269 269 268 268 271 271 267 279 275 274 278 281 283 284 286 286 287 289 287 291 295 294 290 293 291 288 286 285 284 283 283 282 281
273 272 272 270 270 270 269 268 268 266 266 272 276 276 279 279 282 282 281 281 282 286 290 289 291 286 291 295 289 288 286 288 285 283 283 282 281 279
271 271 271 271 269 270 271 270 269 269 268 268 270 272 274 279 279 280 284 285 287 290 290 282 289 286 291 290 291 287 287 286 284 282 280 279 279 278
270 270 269 269 268 269 269 271 271 271 270 270 270 272 274 275 276 280 279 282 283 282 283 282 284 288 291 289 289 291 288 284 282 280 278 277 277 277
270 271 270 267 269 270 268 268 269 272 276 280 278 276 275 278 274 271 275 278 278 281 282 280 285 289 290 290 293 292 291 286 284 280 278 277 276 274
271 273 271 269 268 267 266 267 268 272 274 273 274 280 279 278 281 282 281 277 276 278 283 284 284 286 284 286 290 289 288 286 282 283 280 275 273 271
269 273 274 271 270 269 268 268 267 271 273 274 274 278 278 282 282 279 276 276 277 276 282 284 280 279 281 282 281 290 288 285 281 280 281 280 274 270
267 269 271 272 271 270 268 269 273 276 278 277 279 278 279 281 282 282 283 286 287 285 285 284 277 280 279 275 278 281 287 284 280 279 280 278 277 276
262 262 265 267 267 269 270 268 270 276 277 276 280 283 284 286 284 284 283 285 283 285 286 284 279 278 276 276 275 277 278 280 280 277 277 278 277 274
273 276 276 277 270 260 262 270 266 270 277 278 281 282 282 283 281 282 283 284 280 281 282 282 280 276 275 273 271 272 275 274 277 275 274 274 276 275
268 269 268 270 270 256 251 264 271 275 276 278 278 277 276 276 280 284 284 285 281 281 280 281 280 279 277 274 268 272 272 271 272 274 271 268 272 276
269 273 256 238 247 261 271 280 287 291 290 282 273 269 274 280 281 282 285 284 283 281 278 278 275 272 273 272 277 269 268 270 270 269 267 264 265 274
269 257 247 257 273 282 288 291 291 289 287 286 279 276 279 283 285 287 289 284 285 283 280 278 272 269 266 268 275 277 271 269 267 267 265 265 265 272
241 259 266 274 284 289 289 288 288 288 288 285 280 280 284 287 288 289 287 285 286 283 278 276 275 277 276 276 273 272 273 272 268 263 265 263 264 266
267 265 271 279 284 286 288 291 292 291 290 284 281 282 286 291 292 291 288 283 283 280 278 280 285 281 274 268 269 271 272 272 270 265 261 259 258 259
263 265 274 282 285 289 294 296 295 293 291 287 285 285 290 293 296 293 289 285 282 279 278 278 277 275 270 267 269 271 271 270 268 266 263 260 260 261